Date,TemperatureHighF,TemperatureAvgF,TemperatureLowF,DewpointHighF,DewpointAvgF,DewpointLowF,HumidityHigh,HumidityAvg,HumidityLow,PressureMaxIn,PressureMinIn,WindSpeedMaxMPH,WindSpeedAvgMPH,GustSpeedMaxMPH,PrecipitationSumIn
2013-3-1,74,58,48,54,50,46,96,76,42,30.42,30.21,6,1,10,0.00
2013-3-2,72,57,50,55,50,47,93,78,56,30.22,30.05,10,2,14,0.00
2013-3-3,59,51,48,51,48,45,95,89,74,30.09,30.03,14,7,23,0.00
2013-3-4,54,48,43,46,44,41,93,87,72,30.14,30.05,9,4,13,0.00
2013-3-5,56,49,42,46,43,40,91,80,66,30.06,29.81,23,7,30,0.11
2013-3-6,54,50,44,48,44,42,95,81,66,30.05,29.82,21,7,32,0.08
2013-3-7,56,49,43,45,43,39,93,80,54,29.98,29.85,6,1,11,0.01
2013-3-8,60,50,44,44,42,39,89,75,49,30.03,29.83,12,3,19,0.00
2013-3-9,66,53,42,49,43,39,90,71,45,30.29,30.04,7,2,12,0.00
2013-3-10,65,54,45,50,45,40,92,73,47,30.34,30.24,8,2,11,0.00
2013-3-11,68,53,44,51,46,39,95,79,51,30.25,30.09,10,2,13,0.00
2013-3-12,67,55,47,54,50,46,97,84,63,30.15,30.06,6,2,9,0.00
2013-3-13,78,59,45,57,51,44,97,78,43,30.14,30.04,6,1,8,0.01
2013-3-14,61,53,48,53,49,46,97,86,71,30.15,30.07,7,3,12,0.00
2013-3-15,65,54,48,52,49,46,94,82,55,30.12,30.03,7,2,14,0.00
2013-3-16,67,56,48,52,48,44,97,78,46,30.11,30.01,9,3,15,0.00
2013-3-17,64,54,47,48,44,40,86,69,44,30.14,30.03,8,3,13,0.00
2013-3-18,61,52,47,49,46,42,90,79,60,30.11,30.02,16,3,18,0.00
2013-3-19,63,52,46,49,46,42,92,80,48,30.13,30.05,7,2,12,0.12
2013-3-20,58,53,49,54,50,46,96,91,72,30.12,30.05,13,3,18,0.04
2013-3-21,62,52,42,48,43,40,91,75,50,30.11,30.00,9,3,10,0.00
2013-3-22,66,54,44,42,38,29,85,58,26,30.11,30.02,10,4,15,0.00
2013-3-23,67,54,46,45,38,29,85,58,25,30.13,30.03,10,2,12,0.00
2013-3-24,64,52,46,49,46,43,91,80,52,30.08,29.97,10,3,16,0.00
2013-3-25,57,50,46,47,45,43,92,83,68,30.02,29.93,14,5,18,0.00
2013-3-26,59,52,45,50,46,42,91,80,66,29.99,29.93,8,3,14,0.00
2013-3-27,59,53,48,53,50,45,97,88,77,30.00,29.94,13,4,16,0.00
2013-3-28,66,57,52,55,53,49,97,86,68,30.07,29.99,8,2,11,0.00
2013-3-29,75,58,49,56,51,48,96,80,48,30.07,29.99,10,3,16,0.00
2013-3-30,64,55,51,54,52,50,97,87,63,30.06,29.97,10,4,17,0.05
2013-3-31,64,57,53,55,53,51,96,88,65,30.05,29.97,9,3,14,0.14